Location: Azul
(36.7830°S, 59.8500°W)
Time: 18:01:20
(UTC-03:00)

BEESAT - Pass Details

Date: 23 October 2021
Orbit: 700 x 707 km, 98.6° (Epoch: 06 December)

Event Time Altitude Azimuth Distance (km) Brightness Sun altitude
Rises 19:46:38 0° 15° (NNE) 3,088 ? -5.2°
Reaches altitude 10° 19:48:52 10° 15° (NNE) 2,179 ? -5.6°
Maximum altitude 19:53:39 89° 98° (E) 721 ? -6.5°
Drops below altitude 10° 19:58:32 10° 193° (SSW) 2,211 ? -7.5°
Sets 20:00:49 0° 192° (SSW) 3,138 ? -7.9°
